Time,TemperatureF,DewpointF,PressureIn,WindDirection,WindDirectionDegrees,WindSpeedMPH,WindSpeedGustMPH,Humidity,HourlyPrecipIn,Conditions,Clouds,dailyrainin,SoftwareType,DateUTC
2013-02-23 00:01:00,38.0,34.0,29.83,SW,214,6.0,10.0,84,0.00,,,0.19,,2013-02-23 08:01:00,
2013-02-23 00:11:00,38.0,34.0,29.83,SW,214,6.0,10.0,84,0.00,,,0.19,,2013-02-23 08:11:00,
2013-02-23 00:21:00,38.0,34.0,29.83,SW,218,6.0,11.0,85,0.00,,,0.19,,2013-02-23 08:21:00,
2013-02-23 00:31:00,38.0,34.0,29.84,SSW,203,4.0,10.0,84,0.00,,,0.19,,2013-02-23 08:31:00,
2013-02-23 00:41:00,38.0,34.0,29.84,SSW,203,4.0,10.0,84,0.00,,,0.19,,2013-02-23 08:41:00,
2013-02-23 00:52:00,38.0,34.0,29.85,South,180,4.0,7.0,84,0.00,,,0.19,,2013-02-23 08:52:00,
2013-02-23 01:01:00,38.0,34.0,29.85,SSW,194,4.0,7.0,84,0.00,,,0.19,,2013-02-23 09:01:00,
2013-02-23 01:11:00,38.0,34.0,29.85,SSW,194,4.0,7.0,84,0.00,,,0.19,,2013-02-23 09:11:00,
2013-02-23 01:21:00,38.0,33.0,29.85,SSW,205,5.0,14.0,83,0.00,,,0.19,,2013-02-23 09:21:00,
2013-02-23 01:31:00,38.0,34.0,29.86,SSW,205,4.0,12.0,84,0.00,,,0.19,,2013-02-23 09:31:00,
2013-02-23 01:41:00,38.0,34.0,29.86,SSW,205,4.0,12.0,84,0.00,,,0.19,,2013-02-23 09:41:00,
2013-02-23 01:51:00,38.0,34.0,29.87,SW,219,4.0,10.0,84,0.00,,,0.19,,2013-02-23 09:51:00,
2013-02-23 02:01:00,38.0,34.0,29.87,SSW,202,4.0,12.0,85,0.00,,,0.19,,2013-02-23 10:01:00,
2013-02-23 02:11:00,38.0,34.0,29.87,SSE,155,1.0,11.0,85,0.00,,,0.19,,2013-02-23 10:11:00,
2013-02-23 02:21:00,38.0,34.0,29.87,SSE,155,1.0,11.0,85,0.00,,,0.19,,2013-02-23 10:21:00,
2013-02-23 02:31:00,38.0,34.0,29.88,SW,231,2.0,11.0,86,0.00,,,0.19,,2013-02-23 10:31:00,
2013-02-23 02:41:00,38.0,34.0,29.88,SW,231,2.0,11.0,86,0.00,,,0.19,,2013-02-23 10:41:00,
2013-02-23 02:51:00,38.0,34.0,29.88,SSW,212,3.0,7.0,86,0.00,,,0.19,,2013-02-23 10:51:00,
2013-02-23 03:02:00,39.0,35.0,29.88,SSW,207,5.0,13.0,86,0.00,,,0.19,,2013-02-23 11:02:00,
2013-02-23 03:11:00,39.0,35.0,29.88,SSW,207,5.0,13.0,86,0.00,,,0.19,,2013-02-23 11:11:00,
2013-02-23 03:21:00,39.0,35.0,29.88,South,188,4.0,10.0,86,0.00,,,0.19,,2013-02-23 11:21:00,
2013-02-23 03:32:00,39.0,35.0,29.89,South,187,7.0,14.0,86,0.00,,,0.19,,2013-02-23 11:32:00,
2013-02-23 03:41:00,39.0,35.0,29.89,South,187,7.0,14.0,86,0.00,,,0.19,,2013-02-23 11:41:00,
2013-02-23 03:52:00,39.0,35.0,29.89,SW,220,6.0,11.0,86,0.00,,,0.19,,2013-02-23 11:52:00,
2013-02-23 04:01:00,39.0,35.0,29.90,SSW,205,3.0,14.0,86,0.00,,,0.19,,2013-02-23 12:01:00,
2013-02-23 04:11:00,39.0,35.0,29.90,SSW,205,3.0,14.0,86,0.00,,,0.19,,2013-02-23 12:11:00,
2013-02-23 04:21:00,39.0,35.0,29.90,South,186,6.0,10.0,86,0.00,,,0.19,,2013-02-23 12:21:00,
2013-02-23 04:32:00,39.0,35.0,29.91,SW,221,9.0,13.0,86,0.00,,,0.19,,2013-02-23 12:32:00,
2013-02-23 04:41:00,39.0,35.0,29.91,SW,221,9.0,13.0,86,0.00,,,0.19,,2013-02-23 12:41:00,
2013-02-23 04:52:00,39.0,35.0,29.91,SW,226,2.0,5.0,86,0.00,,,0.19,,2013-02-23 12:52:00,
2013-02-23 05:01:00,39.0,35.0,29.92,SSW,204,3.0,9.0,86,0.00,,,0.19,,2013-02-23 13:01:00,
2013-02-23 05:11:00,39.0,35.0,29.93,SSW,199,1.0,7.0,86,0.00,,,0.18,,2013-02-23 13:11:00,
2013-02-23 05:22:00,39.0,35.0,29.93,SSW,199,1.0,7.0,86,0.00,,,0.18,,2013-02-23 13:22:00,
2013-02-23 05:31:00,39.0,35.0,29.94,South,187,1.0,5.0,86,0.00,,,0.18,,2013-02-23 13:31:00,
2013-02-23 05:41:00,39.0,35.0,29.94,SSE,165,2.0,5.0,87,0.00,,,0.18,,2013-02-23 13:41:00,
2013-02-23 05:52:00,39.0,35.0,29.94,SSE,165,2.0,5.0,87,0.00,,,0.18,,2013-02-23 13:52:00,
2013-02-23 06:01:00,39.0,35.0,29.95,SSE,165,2.0,6.0,87,0.00,,,0.18,,2013-02-23 14:01:00,
2013-02-23 06:11:00,39.0,35.0,29.95,SSW,206,1.0,6.0,87,0.00,,,0.18,,2013-02-23 14:11:00,
2013-02-23 06:21:00,39.0,35.0,29.95,SSW,206,1.0,6.0,87,0.00,,,0.18,,2013-02-23 14:21:00,
2013-02-23 06:32:00,39.0,35.0,29.97,South,176,1.0,6.0,87,0.00,,,0.18,,2013-02-23 14:32:00,
2013-02-23 06:41:00,39.0,35.0,29.97,South,176,1.0,6.0,87,0.00,,,0.18,,2013-02-23 14:41:00,
2013-02-23 06:52:00,39.0,35.0,29.98,South,175,2.0,7.0,87,0.00,,,0.18,,2013-02-23 14:52:00,
2013-02-23 07:01:00,39.0,35.0,29.98,South,187,1.0,5.0,86,0.00,,,0.18,,2013-02-23 15:01:00,
2013-02-23 07:11:00,39.0,35.0,29.98,South,187,1.0,5.0,86,0.00,,,0.18,,2013-02-23 15:11:00,
2013-02-23 07:21:00,39.0,35.0,29.99,ESE,118,1.0,4.0,87,0.00,,,0.18,,2013-02-23 15:21:00,
2013-02-23 07:31:00,39.0,35.0,30.01,ESE,123,1.0,4.0,87,0.00,,,0.18,,2013-02-23 15:31:00,
2013-02-23 07:41:00,39.0,35.0,30.01,ESE,123,1.0,4.0,87,0.00,,,0.18,,2013-02-23 15:41:00,
2013-02-23 07:51:00,39.0,35.0,30.01,South,171,1.0,5.0,86,0.00,,,0.17,,2013-02-23 15:51:00,
2013-02-23 08:01:00,39.0,35.0,30.03,ESE,116,3.0,7.0,86,0.00,,,0.17,,2013-02-23 16:01:00,
2013-02-23 08:11:00,39.0,35.0,30.03,ESE,116,3.0,7.0,86,0.00,,,0.17,,2013-02-23 16:11:00,
2013-02-23 08:21:00,40.0,36.0,30.03,South,181,2.0,5.0,87,0.00,,,0.17,,2013-02-23 16:21:00,
2013-02-23 08:31:00,40.0,36.0,30.03,SW,222,2.0,5.0,86,0.00,,,0.16,,2013-02-23 16:31:00,
2013-02-23 08:42:00,40.0,36.0,30.03,SW,222,2.0,5.0,86,0.00,,,0.16,,2013-02-23 16:42:00,
2013-02-23 08:52:00,40.0,36.0,30.03,North,0,0.0,6.0,87,0.00,,,0.14,,2013-02-23 16:52:00,
2013-02-23 09:01:00,40.0,37.0,30.06,South,177,1.0,3.0,88,0.00,,,0.13,,2013-02-23 17:01:00,
2013-02-23 09:11:00,41.0,37.0,30.07,North,0,0.0,4.0,86,0.00,,,0.11,,2013-02-23 17:11:00,
2013-02-23 09:21:00,41.0,37.0,30.07,North,0,0.0,4.0,86,0.00,,,0.11,,2013-02-23 17:21:00,
2013-02-23 09:31:00,42.0,38.0,30.08,North,0,0.0,4.0,84,0.00,,,0.10,,2013-02-23 17:31:00,
2013-02-23 09:41:00,42.0,38.0,30.08,North,0,0.0,4.0,84,0.00,,,0.10,,2013-02-23 17:41:00,
2013-02-23 09:52:00,42.0,37.0,30.08,SE,134,2.0,6.0,83,0.00,,,0.10,,2013-02-23 17:52:00,
2013-02-23 10:01:00,42.0,37.0,30.08,ESE,102,1.0,5.0,82,0.00,,,0.10,,2013-02-23 18:01:00,
2013-02-23 10:11:00,42.0,37.0,30.08,ESE,102,1.0,5.0,82,0.00,,,0.10,,2013-02-23 18:11:00,
2013-02-23 10:21:00,42.0,37.0,30.08,ESE,102,1.0,5.0,82,0.00,,,0.10,,2013-02-23 18:21:00,
2013-02-23 10:31:00,43.0,37.0,30.11,South,174,2.0,7.0,78,0.00,,,0.08,,2013-02-23 18:31:00,
2013-02-23 10:42:00,43.0,37.0,30.11,South,174,2.0,7.0,78,0.00,,,0.08,,2013-02-23 18:42:00,
2013-02-23 10:52:00,43.0,36.0,30.12,South,176,3.0,6.0,77,0.00,,,0.07,,2013-02-23 18:52:00,
2013-02-23 11:01:00,43.0,36.0,30.13,South,171,3.0,7.0,77,0.00,,,0.05,,2013-02-23 19:01:00,
2013-02-23 11:11:00,43.0,36.0,30.13,South,179,5.0,10.0,75,0.00,,,0.04,,2013-02-23 19:11:00,
2013-02-23 11:21:00,43.0,36.0,30.13,South,179,5.0,10.0,75,0.00,,,0.04,,2013-02-23 19:21:00,
2013-02-23 11:32:00,44.0,36.0,30.13,South,183,1.0,10.0,74,0.00,,,0.03,,2013-02-23 19:32:00,
2013-02-23 11:41:00,44.0,36.0,30.13,South,183,1.0,10.0,74,0.00,,,0.03,,2013-02-23 19:41:00,
2013-02-23 11:52:00,45.0,37.0,30.14,North,0,0.0,5.0,73,0.00,,,0.02,,2013-02-23 19:52:00,
2013-02-23 12:01:00,45.0,37.0,30.14,South,176,2.0,6.0,72,0.00,,,0.02,,2013-02-23 20:01:00,
2013-02-23 12:11:00,45.0,37.0,30.14,South,176,2.0,6.0,72,0.00,,,0.02,,2013-02-23 20:11:00,
2013-02-23 12:21:00,46.0,37.0,30.14,SSE,166,1.0,5.0,71,0.00,,,0.02,,2013-02-23 20:21:00,
2013-02-23 12:31:00,46.0,37.0,30.15,ESE,120,2.0,4.0,70,0.00,,,0.01,,2013-02-23 20:31:00,
2013-02-23 12:41:00,46.0,37.0,30.15,ESE,120,2.0,4.0,70,0.00,,,0.01,,2013-02-23 20:41:00,
2013-02-23 12:52:00,47.0,37.0,30.15,North,0,0.0,5.0,69,0.00,,,0.01,,2013-02-23 20:52:00,
2013-02-23 13:01:00,47.0,37.0,30.15,SSE,164,2.0,7.0,67,0.00,,,0.00,,2013-02-23 21:01:00,
2013-02-23 13:11:00,47.0,36.0,30.15,South,179,4.0,7.0,66,0.00,,,0.00,,2013-02-23 21:11:00,
2013-02-23 13:21:00,47.0,36.0,30.15,South,179,4.0,7.0,66,0.00,,,0.00,,2013-02-23 21:21:00,
2013-02-23 13:31:00,47.0,37.0,30.16,SW,215,2.0,5.0,68,0.00,,,0.00,,2013-02-23 21:31:00,
2013-02-23 13:42:00,47.0,37.0,30.16,SW,215,2.0,5.0,68,0.00,,,0.00,,2013-02-23 21:42:00,
2013-02-23 13:52:00,47.0,36.0,30.16,SSW,205,1.0,5.0,66,0.00,,,0.00,,2013-02-23 21:52:00,
2013-02-23 14:01:00,47.0,37.0,30.16,North,0,0.0,3.0,67,0.00,,,0.00,,2013-02-23 22:01:00,
2013-02-23 14:11:00,47.0,36.0,30.16,SE,127,1.0,3.0,66,0.00,,,0.00,,2013-02-23 22:11:00,
2013-02-23 14:21:00,47.0,36.0,30.16,SE,127,1.0,3.0,66,0.00,,,0.00,,2013-02-23 22:21:00,
2013-02-23 14:31:00,47.0,35.0,30.17,North,0,0.0,3.0,64,0.00,,,0.00,,2013-02-23 22:31:00,
2013-02-23 14:41:00,47.0,35.0,30.17,North,0,0.0,3.0,64,0.00,,,0.00,,2013-02-23 22:41:00,
2013-02-23 14:51:00,48.0,36.0,30.17,North,0,0.0,4.0,63,0.00,,,0.00,,2013-02-23 22:51:00,
2013-02-23 15:01:00,48.0,35.0,30.18,ENE,64,1.0,4.0,60,0.00,,,0.00,,2013-02-23 23:01:00,
2013-02-23 15:11:00,48.0,35.0,30.18,North,0,0.0,2.0,60,0.00,,,0.00,,2013-02-23 23:11:00,
2013-02-23 15:21:00,48.0,35.0,30.18,North,0,0.0,2.0,60,0.00,,,0.00,,2013-02-23 23:21:00,
2013-02-23 15:31:00,49.0,35.0,30.19,SW,218,2.0,4.0,59,0.00,,,0.00,,2013-02-23 23:31:00,
2013-02-23 15:41:00,49.0,35.0,30.19,SW,218,2.0,4.0,59,0.00,,,0.00,,2013-02-23 23:41:00,
2013-02-23 15:52:00,49.0,37.0,30.19,NW,306,2.0,4.0,63,0.00,,,0.00,,2013-02-23 23:52:00,
2013-02-23 16:01:00,49.0,37.0,30.19,North,0,0.0,4.0,64,0.00,,,0.00,,2013-02-24 00:01:00,
2013-02-23 16:11:00,48.0,36.0,30.19,NNW,329,2.0,3.0,64,0.00,,,0.00,,2013-02-24 00:11:00,
2013-02-23 16:21:00,48.0,36.0,30.19,NNW,329,2.0,3.0,64,0.00,,,0.00,,2013-02-24 00:21:00,
2013-02-23 16:31:00,48.0,34.0,30.20,East,90,3.0,9.0,59,0.00,,,0.00,,2013-02-24 00:31:00,
2013-02-23 16:42:00,48.0,34.0,30.20,East,90,3.0,9.0,59,0.00,,,0.00,,2013-02-24 00:42:00,
2013-02-23 16:52:00,47.0,34.0,30.20,East,88,2.0,9.0,60,0.00,,,0.00,,2013-02-24 00:52:00,
2013-02-23 17:01:00,46.0,33.0,30.20,East,82,3.0,5.0,61,0.00,,,0.00,,2013-02-24 01:01:00,
2013-02-23 17:11:00,46.0,33.0,30.20,East,82,3.0,5.0,61,0.00,,,0.00,,2013-02-24 01:11:00,
2013-02-23 17:21:00,46.0,34.0,30.20,ENE,76,1.0,3.0,63,0.00,,,0.00,,2013-02-24 01:21:00,
2013-02-23 17:31:00,45.0,37.0,30.21,NE,49,1.0,3.0,72,0.00,,,0.00,,2013-02-24 01:31:00,
2013-02-23 17:41:00,45.0,37.0,30.21,NE,49,1.0,3.0,72,0.00,,,0.00,,2013-02-24 01:41:00,
2013-02-23 17:51:00,45.0,36.0,30.22,East,81,2.0,6.0,70,0.00,,,0.00,,2013-02-24 01:51:00,
2013-02-23 18:01:00,45.0,35.0,30.23,East,100,3.0,6.0,69,0.00,,,0.00,,2013-02-24 02:01:00,
2013-02-23 18:11:00,45.0,35.0,30.23,East,100,3.0,6.0,69,0.00,,,0.00,,2013-02-24 02:11:00,
2013-02-23 18:21:00,44.0,35.0,30.24,ENE,75,1.0,6.0,71,0.00,,,0.00,,2013-02-24 02:21:00,
2013-02-23 18:31:00,44.0,35.0,30.24,East,81,2.0,6.0,71,0.00,,,0.00,,2013-02-24 02:31:00,
2013-02-23 18:41:00,44.0,35.0,30.24,East,81,2.0,6.0,71,0.00,,,0.00,,2013-02-24 02:41:00,
2013-02-23 18:52:00,44.0,35.0,30.25,East,82,3.0,6.0,71,0.00,,,0.00,,2013-02-24 02:52:00,
2013-02-23 19:01:00,44.0,35.0,30.25,East,84,3.0,9.0,70,0.00,,,0.00,,2013-02-24 03:01:00,
2013-02-23 19:11:00,44.0,35.0,30.25,ENE,77,5.0,9.0,70,0.00,,,0.00,,2013-02-24 03:11:00,
2013-02-23 19:21:00,44.0,35.0,30.25,ENE,77,5.0,9.0,70,0.00,,,0.00,,2013-02-24 03:21:00,
2013-02-23 19:31:00,44.0,36.0,30.26,ESE,103,2.0,7.0,73,0.00,,,0.00,,2013-02-24 03:31:00,
2013-02-23 19:42:00,44.0,36.0,30.26,ESE,103,2.0,7.0,73,0.00,,,0.00,,2013-02-24 03:42:00,
2013-02-23 19:52:00,43.0,36.0,30.26,ESE,114,5.0,9.0,76,0.00,,,0.00,,2013-02-24 03:52:00,
2013-02-23 20:01:00,42.0,36.0,30.27,East,89,3.0,9.0,80,0.00,,,0.00,,2013-02-24 04:01:00,
2013-02-23 20:11:00,42.0,36.0,30.27,East,89,3.0,9.0,80,0.00,,,0.00,,2013-02-24 04:11:00,
2013-02-23 20:21:00,42.0,37.0,30.27,ESE,106,3.0,8.0,82,0.00,,,0.00,,2013-02-24 04:21:00,
2013-02-23 20:31:00,42.0,36.0,30.28,East,100,3.0,9.0,79,0.00,,,0.00,,2013-02-24 04:31:00,
2013-02-23 20:41:00,42.0,36.0,30.28,East,100,3.0,9.0,79,0.00,,,0.00,,2013-02-24 04:41:00,
2013-02-23 20:51:00,43.0,36.0,30.28,ESE,111,3.0,9.0,76,0.00,,,0.00,,2013-02-24 04:51:00,
2013-02-23 21:01:00,42.0,35.0,30.28,ESE,109,3.0,7.0,76,0.00,,,0.00,,2013-02-24 05:01:00,
2013-02-23 21:11:00,42.0,35.0,30.28,ESE,109,3.0,7.0,76,0.00,,,0.00,,2013-02-24 05:11:00,
2013-02-23 21:21:00,42.0,35.0,30.29,ESE,108,3.0,8.0,77,0.00,,,0.00,,2013-02-24 05:21:00,
2013-02-23 21:32:00,42.0,36.0,30.29,ESE,108,4.0,11.0,78,0.00,,,0.00,,2013-02-24 05:32:00,
2013-02-23 21:41:00,42.0,36.0,30.29,ESE,108,4.0,11.0,78,0.00,,,0.00,,2013-02-24 05:41:00,
2013-02-23 21:52:00,41.0,35.0,30.30,ESE,111,4.0,13.0,79,0.00,,,0.00,,2013-02-24 05:52:00,
2013-02-23 22:01:00,41.0,35.0,30.30,ESE,112,4.0,9.0,79,0.00,,,0.00,,2013-02-24 06:01:00,
2013-02-23 22:11:00,41.0,35.0,30.30,ESE,112,4.0,9.0,79,0.00,,,0.00,,2013-02-24 06:11:00,
2013-02-23 22:21:00,41.0,35.0,30.30,ESE,107,2.0,8.0,80,0.00,,,0.00,,2013-02-24 06:21:00,
2013-02-23 22:31:00,41.0,34.0,30.30,ESE,112,2.0,9.0,75,0.00,,,0.00,,2013-02-24 06:31:00,
2013-02-23 22:41:00,41.0,34.0,30.30,ESE,112,2.0,9.0,75,0.00,,,0.00,,2013-02-24 06:41:00,
2013-02-23 22:52:00,41.0,34.0,30.31,ESE,121,1.0,9.0,76,0.00,,,0.00,,2013-02-24 06:52:00,
2013-02-23 23:01:00,41.0,34.0,30.31,ESE,111,4.0,9.0,76,0.00,,,0.00,,2013-02-24 07:01:00,
2013-02-23 23:11:00,41.0,34.0,30.31,ESE,111,4.0,9.0,76,0.00,,,0.00,,2013-02-24 07:11:00,
2013-02-23 23:21:00,41.0,34.0,30.31,ESE,117,2.0,5.0,76,0.00,,,0.00,,2013-02-24 07:21:00,
2013-02-23 23:31:00,41.0,34.0,30.31,ESE,117,1.0,6.0,77,0.00,,,0.00,,2013-02-24 07:31:00,
2013-02-23 23:41:00,41.0,34.0,30.31,ESE,117,1.0,6.0,77,0.00,,,0.00,,2013-02-24 07:41:00,
2013-02-23 23:51:00,40.0,34.0,30.31,SSE,155,1.0,6.0,80,0.00,,,0.00,,2013-02-24 07:51:00,